Regional Weather Roundup
Issued by NWS

Home | Current Version | Previous Version | Text Only | Print | Product List | Glossary On
Versions: 1 2 3 4 5 6 7 8 9 10 11 12 13 14 15 16 17 18 19 20 21 22 23 24 25 26 27 28 29 30 31 32 33 34 35 36 37 38 39 40 41 42 43 44 45 46 47 48 49 50
000
ASUS44 KJAN 060803
RWRMS

MISSISSIPPI HOURLY WEATHER ROUNDUP
NATIONAL WEATHER SERVICE JACKSON MS
200 AM CST SAT FEB 06 2016

NOTE: "FAIR: INDICATES FEW OR NO CLOUDS BELOW 12,000 FEET WITH NO
SIGNIFICANT WEATHER AND/OR OBSTRUCTIONS TO VISIBILITY.

MSZ001>002-007>008-010>013-018>021-025>028-034>036-060900-
NORTHWEST MISSISSIPPI

CITY           SKY/WX    TMP DP  RH WIND       PRES   REMARKS
CLEVELAND      FAIR      38  35  88 CALM      30.37F
GREENWOOD      CLOUDY    35  28  75 NE3       30.38S
GREENVILLE     CLOUDY    39  31  72 CALM      30.36F
OLIVE BRANCH   CLEAR     32  30  93 CALM      30.37S
OXFORD         FAIR      32  27  80 CALM      30.39S
TUNICA         SUNNY     34  32  93 CALM      30.38S
$$

MSZ003>006-009-014>017-022>024-029>033-037>039-060900-
NORTHEAST MISSISSIPPI

CITY           SKY/WX    TMP DP  RH WIND       PRES   REMARKS
COLUMBUS AFB   CLOUDY    33  29  86 CALM      30.37F
CORINTH        FAIR      30  27  86 CALM      30.38S
GOLDN TRIANGLE PTCLDY    36  28  75 CALM      30.36S
STARKVILLE     FAIR      34  32  93 CALM      30.38S
TUPELO         PTCLDY    35  29  78 CALM      30.38S
$$

MSZ040-058-060900-
CENTRAL MISSISSIPPI

CITY           SKY/WX    TMP DP  RH WIND       PRES   REMARKS
JACKSON INTL   CLEAR     32  26  78 CALM      30.36F
JACKSON HAWKNS CLEAR     35  28  75 CALM      30.37F
MERIDIAN KEY   CLEAR     29  26  89 CALM      30.37S
MERIDIAN NAS   CLEAR     29  25  85 CALM      30.37S
VICKSBURG      CLOUDY    41  34  76 CALM      30.37F
$$

MSZ059>079-060900-
SOUTH MISSISSIPPI

CITY           SKY/WX    TMP DP  RH WIND       PRES   REMARKS
BROOKHAVEN     FAIR      32  32 100 MISG      30.37F
HATTIESBURG    PTCLDY    30  27  88 CALM      30.38S
MCCOMB         PTCLDY    32  28  85 CALM      30.36S
NATCHEZ        PTCLDY    30  25  80 CALM      30.36F
PINE BELT      PTCLDY    28  25  86 CALM      30.36S
$$

MSZ080>082-060900-
COASTAL MISSISSIPPI

CITY           SKY/WX    TMP DP  RH WIND       PRES   REMARKS
BILOXI         PTCLDY    37  29  74 CALM      30.36R
PASCAGOULA     PTCLDY    33  32  96 CALM      30.36S
GULFPORT       CLOUDY    34  28  79 CALM      30.37R
$$



USA.gov is the U.S. government's official web portal to all federal, state and local government web resources and services.